Location: Molino di Ancona
(43.6167°N, 13.3667°E)
Time: 05:18:00
(UTC+00:00)

Cosmos 1066 Rocket - Pass Details

Date: 15 December 2019
Orbit: 798 x 895 km, 81.2° (Epoch: 28 January)

Event Time Altitude Azimuth Distance (km) Brightness Sun altitude
Rises 05:19:00 0° 351° (N) 3,405 7.1 -12.8°
Reaches altitude 10° 05:21:28 10° 353° (N) 2,452 6.3 -12.4°
Maximum altitude 05:27:00 74° 79° (E) 853 4.4 -11.4°
Drops below altitude 10° 05:32:22 10° 164° (SSE) 2,381 7.1 -10.5°
Sets 05:34:44 0° 167° (SSE) 3,300 7.8 -10.1°
